Location: Newark
(25.6108°S, 54.5803°W)
Time: 05:46:43
(UTC+00:00)

deb Explorer IX - Pass Details

Date: 03 November 2020
Orbit: 538 x 1104 km, 38.8° (Epoch: 27 November)

Event Time Altitude Azimuth Distance (km) Brightness Sun altitude
Rises 15:19:23 0° 336° (NNW) 3,900 ? 79.7°
Reaches altitude 10° 15:22:41 10° 348° (NNW) 2,927 ? 79.7°
Maximum altitude 15:28:25 26° 40° (NE) 1,941 ? 79.6°
Drops below altitude 10° 15:33:47 10° 94° (E) 2,736 ? 79.4°
Sets 15:36:44 0° 106° (ESE) 3,599 ? 79.2°
